TIME,DELAY(SENSOR),PRES,T(CTD),SAL,OXYGEN,RAWTEMP,T(OPTODE),TCPHASE,TURBIDITY,TURBIDITY_GAIN,FLUOR,BETA,CDOM,ED411.5,ED443.8,ED489.6,PAR,COMP,TILT,TILTY(TILT),CHECK
1341216825,6469,134.2500000000000000,5.4411001205444340,35.0043983459472660,337.8778991699219000,746.3510742187500000,5.4124450683593750,34.2228088378906250,16,3,50,120,64,2147243753,2147558330,2147597238,2147362929,2496,0,-11,32545
1341216886,6466,130.1600036621093800,5.4748001098632810,35.0084991455078100,337.8139038085937500,745.4310913085938000,5.4444432258605960,34.2073898315429700,15,3,49,119,64,2147245430,2147561416,2147600662,2147363601,1898,0,-11,25505
1341216947,6468,126.0899963378906200,5.4744000434875490,35.0063018798828100,337.8322143554687500,745.3751831054688000,5.4463877677917480,34.2057495117187500,22,3,50,122,65,2147239451,2147561234,2147609617,2147364329,1458,0,-10,46039
1341217008,6468,122.0500030517578100,5.5008997917175290,35.0082015991210940,337.3930969238281000,744.6105957031250000,5.4729690551757810,34.2062797546386700,16,3,50,130,64,2147244588,2147562048,2147617403,2147364177,1036,0,-10,38591
1341217069,6467,118.0400009155273400,5.5753998756408690,35.0150985717773440,338.5419921875000000,741.9608154296875000,5.5650310516357420,34.1147117614746100,12,3,50,131,64,2147242299,2147563551,2147625768,2147364580,334,0,-12,50795
1341217131,6466,113.9400024414062500,5.5984997749328610,35.0152015686035160,339.1221008300781000,741.7896118164062000,5.5709719657897950,34.0909309387207000,13,3,50,143,65,2147244712,2147565617,2147636630,2147366038,3103,0,-10,57013
1341217192,6467,110.0100021362304700,5.6118001937866210,35.0106010437011700,337.4534912109375000,741.0803833007812000,5.5955920219421390,34.1354598999023440,18,3,51,127,64,2147244740,2147569188,2147647172,2147368891,2482,0,-12,23413
1341217253,6469,106.2500000000000000,5.7234997749328610,35.0223007202148440,338.9978942871094000,738.4432983398438000,5.6870770454406740,34.0310516357421900,29,3,52,132,64,2147244543,2147570006,2147656991,2147373165,2048,0,-10,53690
1341217314,6465,102.6200027465820300,5.6708002090454100,35.0105018615722660,338.7247009277344000,739.2316894531250000,5.6597371101379395,34.0553817749023440,27,3,50,143,64,2147237919,2147573284,2147672374,2147374445,1651,0,-11,46537
1341217375,6468,99.0599975585937500,5.6567997932434080,35.0057983398437500,336.6424865722656000,739.6439819335938000,5.6454329490661620,34.1361808776855500,20,3,51,150,64,2147245041,2147580090,2147686847,2147375131,1140,0,-10,29826
1341217437,6467,95.4000015258789000,5.7002000808715820,35.0059013366699200,336.6890869140625000,738.5706176757812000,5.6826629638671875,34.1138610839843750,16,3,52,144,64,2147242655,2147581536,2147705379,2147379624,573,0,-11,59454
1341217501,6503,91.8000030517578100,5.7996001243591310,35.0127983093261700,336.0745849609375000,736.1655273437500000,5.7660160064697270,34.0892791748046900,14,3,52,158,64,2147244648,2147580241,2147717969,2147383190,3523,0,-10,17380
1341217562,6465,88.5199966430664000,5.8319997787475590,35.0155982971191400,334.9638977050781000,735.1193847656250000,5.8022418022155760,34.1081886291503900,19,3,51,150,64,2147242916,2147592045,2147747044,2147386770,3071,0,-12,61014
1341217626,6465,85.1800003051757800,5.8689999580383300,35.0157012939453100,335.4306945800781000,733.8442993164062000,5.8463802337646480,34.0673103332519500,16,3,52,151,64,2147249293,2147598175,2147778737,2147391615,2515,0,-12,34777
1341217687,6468,82.0999984741211000,5.9355998039245605,35.0205001831054700,336.4213867187500000,731.8355102539062000,5.9158649444580080,33.9943199157714840,18,3,54,144,64,2147242194,2147600291,2147797549,2147395730,2167,0,-10,39231
1341217751,6504,78.9700012207031200,6.0652999877929690,35.0325012207031250,334.2799072265625000,728.5670776367188000,6.0287990570068360,34.0071907043457000,36,3,50,158,64,2147248539,2147608717,2147831995,2147403949,1809,0,-12,14671
1341217812,6465,76.1100006103515600,6.0440998077392580,35.0238990783691400,335.4299011230469000,728.5228881835938000,6.0303268432617190,33.9658813476562500,15,3,57,149,63,2147250449,2147615757,2147852817,2147408786,1467,0,-11,50217
1341217876,6468,73.1900024414062500,6.2262001037597660,35.0383987426757800,336.9100036621094000,724.1505737304688000,6.1811661720275880,33.8313484191894500,17,3,57,224,63,2147252118,2147621252,2147872209,2147415729,926,0,-12,39384
1341217937,6469,70.3399963378906200,6.2620000839233400,35.0456008911132800,335.0033874511719000,723.4058837890625000,6.2068290710449220,33.8840103149414060,16,3,57,153,64,2147256058,2147630052,2147900214,2147421681,614,0,-12,45440
1341218001,6467,67.1800003051757800,6.2372999191284180,35.0340995788574200,338.4667053222656000,723.2617797851562000,6.2117981910705570,33.7604103088378900,22,3,62,157,64,2147257293,2147636666,2147945905,2147436256,347,0,-12,58701
1341218063,6467,64.0299987792968800,6.3063001632690430,35.0432014465332000,338.2142028808594000,721.4204711914062000,6.2752127647399900,33.7347602844238300,63,3,62,159,64,2147268397,2147657800,2148012186,2147448433,3253,0,-10,37718
1341218127,6467,60.5699996948242200,6.3646998405456540,35.0448989868164060,337.5552062988281000,719.6527099609375000,6.3360581398010250,33.7245407104492200,18,3,70,159,64,2147275793,2147683300,2148114340,2147479336,2757,0,-10,38377
1341218188,6468,57.1800003051757800,6.3632998466491700,35.0441017150878900,338.1783142089844000,719.5595092773438000,6.3392658233642580,33.7011489868164060,18,3,72,158,64,2147293211,2147719190,2148234902,2147512648,2289,0,-12,18246
1341218252,6503,53.4300003051757800,6.2774000167846680,35.0234985351562500,341.3919982910156000,721.6992797851562000,6.2656140327453610,33.6302604675293000,20,3,82,176,64,2147318061,2147781750,2148443601,2147569563,1771,0,-12,33665
1341218313,6467,49.6699981689453100,6.2722001075744630,35.0131988525390600,346.2076110839844000,722.3101196289062000,6.2445831298828125,33.4778594970703100,25,3,92,177,64,2147366317,2147873302,2148711309,2147655971,1360,0,-11,33677
1341218402,6469,45.0200004577636700,6.5841999053955080,35.0200004577636700,348.3930053710937500,714.3563842773438000,6.5180850028991700,33.2565116882324200,28,3,134,189,64,2147426363,2147984552,2149030650,2147757992,1342,0,-11,32988
1341218463,6471,43.1500015258789060,6.5812997817993160,35.0059013366699200,349.8627014160156000,713.5233764648438000,6.5466818809509280,33.1923789978027340,42,3,170,236,64,2147469475,2148067249,2149271478,2147837654,1438,0,-10,18451
1341218551,6470,40.3100013732910160,6.7996001243591310,34.9953994750976560,353.7705078125000000,707.6707153320312000,6.7473177909851070,32.9560890197753900,56,3,228,333,65,2147589558,2148267364,2149763610,2148006001,886,0,-10,51339
1341218612,6470,37.5699996948242200,6.8685002326965330,34.9765014648437500,358.5126953125000000,704.7111206054688000,6.8485980033874510,32.7482490539550800,65,3,280,433,66,2147708781,2148440360,2150154628,2148140959,774,0,-12,9388
1341218676,6470,35.0299987792968750,7.2834000587463380,34.9920997619628900,359.8617858886719000,693.8671264648438000,7.2186827659606930,32.5100402832031250,73,3,347,565,64,2147933146,2148765714,2150872397,2148397617,480,0,-12,22952
1341218738,6470,33.1100006103515600,7.5069999694824220,34.9968986511230500,361.8745117187500000,687.6076049804688000,7.4316039085388180,32.3351402282714840,97,3,355,689,64,2148207528,2149155812,2151724150,2148705571,3045,0,-12,34538
1341218829,6469,29.9699993133544920,7.7097997665405270,34.9967994689941400,365.4204101562500000,679.4838256835938000,7.7071819305419920,32.0810813903808600,114,3,378,841,64,2149034847,2150153485,2153581763,2149417083,2638,0,-10,9938
1341218890,6472,26.9099998474121100,7.9946999549865720,34.9944992065429700,373.0524902343750000,672.2498779296875000,7.9518599510192870,31.7206592559814450,145,3,621,1043,64,2150542321,2152035496,2157039272,2150729773,2362,0,-12,23402
1341218954,6472,23.8500003814697270,8.1378002166748050,34.9930000305175800,384.2109985351562500,667.2644042968750000,8.1201095581054690,31.3021392822265620,148,3,702,1023,65,2153478728,2155505741,2162615500,2152914208,2041,0,-12,39081
1341219015,6469,21.1700000762939450,8.5461997985839840,34.9873008728027340,393.0026855468750000,655.2689208984375000,8.5236682891845700,30.8467597961425780,129,3,670,910,64,2157083084,2159535035,2168332105,2155226700,1705,0,-10,23973
1341219079,6469,18.2500000000000000,8.8325004577636720,34.9762001037597660,401.7481079101562500,646.4149169921875000,8.8204231262207030,30.4553909301757800,117,3,613,755,64,2164211551,2167444378,2178670582,2159669686,1690,0,-11,18166
1341219140,6470,15.4099998474121100,9.2473001480102540,34.9791984558105500,403.5805969238281000,632.1865234375000000,9.2953796386718750,30.1745090484619140,113,3,531,673,62,2172998998,2177082271,2190735643,2165118157,1381,1,-12,30011
1341219204,6470,13.1700000762939450,10.9432001113891600,34.9726982116699200,381.6329956054687500,586.8206176757812000,10.7946996688842770,30.0806808471679700,112,3,449,587,62,2179653439,2184849407,2200361334,2169647963,2172,2,-11,21180
1341219404,6470,11.0100002288818360,11.0061998367309570,34.9883995056152340,361.6040039062500000,580.3588867187500000,11.0065002441406250,30.5779094696044920,78,3,338,541,60,2193782029,2200278107,2216645585,2178412556,3015,0,-13,59027
1341219484,6470,7.7699999809265140,11.1510000228881840,34.9844017028808600,359.5143127441406000,575.9370117187500000,11.1512002944946290,30.5741901397705080,100,3,227,498,53,2218570331,2227451935,2245569092,2195887217,615,-1,-13,22748
1341219548,6469,4.4699997901916500,11.2216997146606450,34.9838981628418000,358.4949951171875000,573.6146850585938000,11.2271203994750980,30.5701408386230470,102,3,158,494,48,2259785531,2273481969,2291571236,2232062477,306,-4,-14,24398
1341219598,6468,0.4000000059604645,0.0000000000000000,0.0000000000000000,358.2410888671875000,573.3475952148438000,11.2358503341674800,30.5740394592285160,115,3,144,464,58,2281544657,2296505672,2311629366,2256738340,3256,1,-20,38341
1341219624,6468,1.5700000524520874,0.0000000000000000,0.0000000000000000,358.1890869140625000,572.9824829101562000,11.2477703094482420,30.5698795318603500,92,3,123,460,60,2299728008,2316520346,2330005910,2285181220,3341,5,-11,32220
